Location: Bastelaar
(51.0950°N, 3.8602°E)
Time: 01:50:08
(UTC+00:00)

IRS-1C - Pass Details

Date: 18 November 2025
Orbit: 813 x 814 km, 99.0° (Epoch: 13 December)

Event Time Altitude Azimuth Distance (km) Brightness Sun altitude
Rises 17:14:36 0° 166° (SSE) 3,327 7.3 -12.7°
Reaches altitude 10° 17:16:56 10° 168° (SSE) 2,399 6.6 -13.0°
Maximum altitude 17:22:15 77° 255° (WSW) 840 4.3 -13.8°
Drops below altitude 10° 17:27:36 10° 342° (NNW) 2,416 6.6 -14.6°
Sets 17:29:58 0° 344° (NNW) 3,352 7.4 -15.0°
